CW3109 Weather Reports


time (UTC)temp
F
wind
direction
speed
knots
gust
knots
rain 1hr
in
rain 24hr
in
rain mn
in
humidity
%
barometer
mb
20260506211904 69 246 8.7 13.9 0.00 0.00 0.00 62 1017.3
20260506211403 69 240 7.0 12.2 0.00 0.00 0.00 62 1017.3
20260506210904 69 272 7.0 13.0 0.00 0.00 0.00 63 1017.5
20260506205903 69 266 7.8 13.0 0.00 0.00 0.00 63 1017.5
20260506205403 69 266 7.8 13.0 0.00 0.00 0.00 62 1017.5
20260506204903 69 288 7.0 11.3 0.00 0.00 0.00 62 1017.5
20260506204404 68 245 6.1 13.0 0.00 0.00 0.00 64 1017.5
20260506203404 68 252 9.6 13.9 0.00 0.00 0.00 63 1017.7
20260506202904 68 280 6.1 11.3 0.00 0.00 0.00 63 1017.7
20260506201904 67 246 7.0 12.2 0.00 0.00 0.00 64 1018.0
20260506201404 67 268 7.0 13.9 0.00 0.00 0.00 64 1018.0
20260506200904 67 268 7.0 11.3 0.00 0.00 0.00 64 1018.1
20260506200403 67 271 7.8 11.3 0.00 0.00 0.00 66 1018.1
20260506195404 66 239 7.8 11.3 0.00 0.00 0.00 64 1018.2
20260506194904 66 262 7.8 12.2 0.00 0.00 0.00 65 1018.2
20260506194404 66 278 7.0 14.8 0.00 0.00 0.00 65 1018.2
20260506193904 66 257 7.0 12.2 0.00 0.00 0.00 64 1018.3
20260506192404 66 272 4.3 8.7 0.00 0.00 0.00 64 1018.5
20260506191404 65 245 4.3 8.7 0.00 0.00 0.00 65 1018.5
20260506190904 65 253 4.3 8.7 0.00 0.00 0.00 65 1018.5
20260506190404 65 255 3.5 10.4 0.00 0.00 0.00 67 1018.5
20260506185904 64 261 2.6 8.7 0.00 0.00 0.00 66 1018.5
20260506185404 65 248 2.6 8.7 0.00 0.00 0.00 66 1018.6
20260506184404 65 266 3.5 8.7 0.00 0.00 0.00 66 1018.6
20260506183904 64 245 4.3 10.4 0.00 0.00 0.00 67 1018.7
20260506183404 64 272 2.6 8.7 0.00 0.00 0.00 67 1018.7
20260506182404 64 266 4.3 7.8 0.00 0.00 0.00 67 1018.7
20260506181905 64 207 4.3 8.7 0.00 0.00 0.00 67 1018.7
20260506181404 64 241 4.3 11.3 0.00 0.00 0.00 68 1018.7
20260506180404 64 249 4.3 7.0 0.00 0.00 0.00 68 1018.6
20260506174904 63 253 4.3 7.0 0.00 0.00 0.00 69 1018.7
20260506174404 63 268 4.3 7.0 0.00 0.00 0.00 69 1018.7
20260506173403 62 230 2.6 6.1 0.00 0.00 0.00 70 1018.7
20260506172904 62 262 4.3 8.7 0.00 0.00 0.00 70 1018.7
20260506170404 62 277 2.6 6.1 0.00 0.00 0.00 70 1018.9
20260506165903 61 261 1.7 2.6 0.00 0.00 0.00 71 1018.9
20260506165404 61 262 2.6 6.1 0.00 0.00 0.00 71 1018.9
20260506164904 61 280 3.5 7.8 0.00 0.00 0.00 70 1018.9
20260506164404 61 244 3.5 6.1 0.00 0.00 0.00 69 1018.9
20260506163904 62 264 3.5 5.2 0.00 0.00 0.00 70 1018.9
20260506163404 62 272 2.6 5.2 0.00 0.01 0.00 69 1018.9
20260506162903 62 272 1.7 2.6 0.00 0.01 0.00 68 1018.9
20260506162404 62 271 1.7 2.6 0.00 0.02 0.00 68 1018.9
20260506161904 62 268 0.9 2.6 0.00 0.02 0.00 69 1018.9
20260506161404 62 267 1.7 2.6 0.00 0.02 0.00 69 1018.9
20260506160404 61 262 0.9 2.6 0.00 0.02 0.00 71 1018.9
20260506155904 60 271 2.6 4.3 0.00 0.02 0.00 71 1018.9
20260506155404 60 292 1.7 2.6 0.00 0.02 0.00 71 1018.9
20260506154904 60 293 0.9 2.6 0.00 0.02 0.00 71 1018.9
20260506153903 60 31 1.7 2.6 0.00 0.02 0.00 72 1019.0
20260506153404 60 59 0.9 2.6 0.00 0.02 0.00 72 1019.0
20260506152904 60 59 0.0 1.7 0.00 0.02 0.00 72 1019.0
20260506152405 60 59 1.7 2.6 0.00 0.02 0.00 73 1018.9
20260506151904 60 60 0.0 2.6 0.00 0.02 0.00 73 1018.9
20260506150904 59 59 0.0 1.7 0.00 0.02 0.00 73 1018.8
20260506150404 59 59 0.9 1.7 0.00 0.02 0.00 73 1018.8
20260506145904 59 59 0.9 1.7 0.00 0.02 0.00 73 1018.8
20260506144904 59 59 0.0 2.6 0.00 0.02 0.00 73 1018.7
20260506144403 59 59 2.6 2.6 0.00 0.02 0.00 74 1018.7
20260506143904 59 61 0.9 4.3 0.00 0.02 0.00 74 1018.6
20260506143404 59 44 0.0 1.7 0.00 0.02 0.00 74 1018.6
20260506142904 59 44 1.7 2.6 0.00 0.02 0.00 74 1018.6
20260506142404 59 44 0.9 2.6 0.00 0.02 0.00 74 1018.6
20260506141904 59 44 0.0 2.6 0.00 0.02 0.00 74 1018.6
20260506140904 58 53 0.9 2.6 0.00 0.02 0.00 74 1018.5
20260506140404 58 55 0.9 2.6 0.00 0.02 0.00 74 1018.5
20260506135404 58 55 1.7 2.6 0.00 0.02 0.00 74 1018.2
20260506134903 58 292 0.9 2.6 0.00 0.02 0.00 75 1018.2
20260506134404 58 282 0.9 1.7 0.00 0.02 0.00 75 1018.2
20260506133404 58 282 0.9 1.7 0.00 0.02 0.00 75 1018.0
20260506132904 58 281 0.9 2.6 0.00 0.02 0.00 75 1018.0
20260506132404 58 281 0.0 0.9 0.00 0.02 0.00 75 1018.0
20260506131403 58 281 0.9 1.7 0.00 0.02 0.00 75 1018.0
20260506130904 58 281 0.0 1.7 0.00 0.02 0.00 75 1018.0
20260506130403 58 280 0.0 0.9 0.00 0.02 0.00 75 1018.0
20260506125904 58 281 0.9 2.6 0.00 0.02 0.00 75 1018.0
20260506125403 58 277 0.9 2.6 0.00 0.02 0.00 75 1017.7
20260506124904 58 277 0.9 2.6 0.00 0.02 0.00 75 1017.7
20260506124403 58 275 0.0 1.7 0.00 0.02 0.00 75 1017.7
20260506123904 58 275 0.0 0.9 0.00 0.02 0.00 75 1017.7
20260506123404 58 275 0.0 1.7 0.00 0.02 0.00 75 1017.7
20260506122904 58 274 0.0 0.9 0.00 0.02 0.00 75 1017.7
20260506122404 58 274 0.0 2.6 0.00 0.02 0.00 75 1017.6
20260506121404 59 271 0.9 1.7 0.00 0.02 0.00 75 1017.6
20260506120904 59 271 0.0 0.9 0.00 0.02 0.00 75 1017.6
20260506120404 58 271 0.9 2.6 0.00 0.02 0.00 75 1017.6
20260506115903 58 263 0.0 2.6 0.00 0.02 0.00 75 1017.6
20260506115403 58 261 0.0 2.6 0.00 0.02 0.00 75 1017.5
20260506114903 58 261 0.0 1.7 0.00 0.02 0.00 75 1017.5
20260506114404 58 259 0.0 1.7 0.00 0.02 0.00 75 1017.5
20260506113904 58 253 0.0 0.9 0.00 0.02 0.00 75 1017.4
20260506113404 59 253 0.0 1.7 0.00 0.02 0.00 75 1017.4
20260506112904 59 253 0.0 2.6 0.00 0.02 0.00 75 1017.4
20260506112404 59 253 1.7 4.3 0.00 0.02 0.00 76 1017.3
20260506111903 59 271 0.9 2.6 0.00 0.02 0.00 75 1017.3
20260506111404 59 271 0.0 1.7 0.00 0.02 0.00 75 1017.3
20260506110904 59 271 0.0 2.6 0.00 0.02 0.00 75 1017.3
20260506110404 59 271 1.7 2.6 0.00 0.02 0.00 75 1017.3
20260506105904 59 267 0.0 2.6 0.00 0.02 0.00 75 1017.3
20260506105404 59 267 1.7 2.6 0.00 0.02 0.00 75 1017.1
20260506104904 59 260 0.0 2.6 0.00 0.02 0.00 75 1017.1
20260506104405 59 260 1.7 2.6 0.00 0.02 0.00 75 1017.1
20260506103404 59 260 0.0 0.0 0.00 0.03 0.00 75 1017.2
20260506102904 59 260 0.0 0.0 0.00 0.03 0.00 75 1017.2
20260506101904 59 259 0.0 0.0 0.00 0.03 0.00 75 1017.1
20260506095905 59 259 0.0 0.0 0.00 0.04 0.00 75 1017.1
20260506095404 59 259 0.0 0.0 0.00 0.04 0.00 75 1017.0
20260506094904 59 259 0.0 0.0 0.00 0.04 0.00 75 1017.0
20260506094403 59 259 0.0 0.0 0.00 0.04 0.00 75 1017.0
20260506093904 59 259 0.0 0.0 0.00 0.04 0.00 75 1017.0
20260506093403 59 259 0.0 0.0 0.00 0.04 0.00 75 1017.0
20260506092904 59 259 0.0 0.0 0.00 0.04 0.00 75 1017.0
20260506092405 59 259 0.0 1.7 0.00 0.04 0.00 75 1017.2
20260506091904 59 259 0.0 2.6 0.00 0.04 0.00 75 1017.2
20260506091403 59 259 0.9 2.6 0.00 0.04 0.00 75 1017.2
20260506090904 59 259 0.0 1.7 0.00 0.04 0.00 74 1017.1
20260506090404 59 259 0.0 1.7 0.00 0.04 0.00 74 1017.1
20260506085903 59 259 0.0 2.6 0.00 0.04 0.00 74 1017.1
20260506085405 59 259 0.0 1.7 0.00 0.04 0.00 74 1017.1
20260506084904 59 259 0.9 2.6 0.00 0.04 0.00 74 1017.1
20260506084404 59 259 0.9 2.6 0.00 0.04 0.00 74 1017.1
20260506083904 59 259 0.9 2.6 0.00 0.04 0.00 74 1017.3
20260506083404 59 258 0.9 4.3 0.00 0.04 0.00 74 1017.3
20260506082904 59 281 0.9 2.6 0.00 0.04 0.00 74 1017.3
20260506081904 59 281 0.9 2.6 0.00 0.04 0.00 74 1017.3
20260506081404 59 277 0.9 4.3 0.00 0.04 0.00 74 1017.3
20260506080904 59 249 1.7 4.3 0.00 0.04 0.00 74 1017.2
20260506080404 59 272 2.6 2.6 0.00 0.04 0.00 74 1017.2
20260506073404 59 264 0.9 2.6 0.00 0.04 0.00 74 1016.9
20260506072904 59 261 2.6 2.6 0.00 0.04 0.00 74 1016.9
20260506072403 59 255 1.7 4.3 0.00 0.04 0.00 74 1016.9
20260506071404 59 250 1.7 4.3 0.00 0.04 0.00 74 1016.9
20260506070904 59 287 2.6 2.6 0.00 0.04 0.00 74 1016.8
20260506070404 59 281 1.7 4.3 0.00 0.04 0.00 74 1016.8
20260506061903 60 257 0.9 2.6 0.00 0.04 0.04 75 1016.5
20260506061403 60 257 0.9 4.3 0.00 0.04 0.04 75 1016.5
20260506060403 59 280 0.9 5.2 0.00 0.04 0.04 74 1016.5
20260506051403 60 280 2.6 5.2 0.00 0.04 0.04 74 1016.2
20260506050404 60 276 2.6 7.8 0.00 0.04 0.04 74 1016.1
20260506044903 60 284 2.6 6.1 0.00 0.04 0.04 73 1015.9
20260506044403 60 282 2.6 7.0 0.00 0.04 0.04 73 1015.9
20260506043903 60 277 2.6 4.3 0.00 0.04 0.04 73 1015.8
20260506043404 60 269 2.6 6.1 0.00 0.04 0.04 73 1015.8
20260506042904 60 269 2.6 7.8 0.00 0.04 0.04 72 1015.8
20260506042404 60 268 4.3 8.7 0.00 0.04 0.04 72 1015.6
20260506041904 60 282 2.6 7.8 0.00 0.04 0.04 72 1015.6
20260506040404 60 238 1.7 5.2 0.00 0.04 0.04 72 1015.4
20260506035904 60 308 3.5 7.0 0.00 0.04 0.04 72 1015.4
20260506035404 60 282 3.5 6.1 0.00 0.04 0.04 72 1015.2
20260506034904 60 275 4.3 6.1 0.00 0.04 0.04 72 1015.2
20260506034404 60 271 4.3 6.1 0.00 0.04 0.04 72 1015.2
20260506033903 60 273 4.3 7.8 0.00 0.04 0.04 72 1015.0
20260506033404 60 269 2.6 6.1 0.00 0.04 0.04 72 1015.0
20260506032903 60 285 2.6 6.1 0.00 0.04 0.04 72 1015.0
20260506032403 60 269 2.6 10.4 0.00 0.04 0.04 72 1014.8
20260506031903 60 272 1.7 6.1 0.00 0.04 0.04 72 1014.8
20260506030404 61 257 2.6 10.4 0.00 0.04 0.04 72 1014.6
20260506025904 61 284 4.3 10.4 0.00 0.04 0.04 71 1014.6
20260506025404 61 282 4.3 6.1 0.00 0.04 0.04 71 1014.5
20260506024404 61 291 3.5 8.7 0.00 0.04 0.04 71 1014.5
20260506023904 61 273 2.6 6.1 0.00 0.04 0.04 71 1014.4
20260506023404 61 282 2.6 7.8 0.00 0.04 0.04 70 1014.4
20260506022904 62 270 4.3 11.3 0.00 0.04 0.04 70 1014.4
20260506022404 62 294 5.2 8.7 0.00 0.04 0.04 70 1014.3
20260506021904 62 278 2.6 7.8 0.00 0.04 0.04 69 1014.3
20260506021404 62 261 1.7 5.2 0.00 0.04 0.04 69 1014.3
20260506020904 62 256 2.6 7.8 0.00 0.04 0.04 69 1014.2
20260506020404 62 278 5.2 10.4 0.00 0.04 0.04 68 1014.2
20260506015904 62 270 3.5 10.4 0.00 0.04 0.04 68 1014.2
20260506015404 62 273 3.5 7.8 0.00 0.04 0.04 68 1014.2
20260506014404 62 276 2.6 8.7 0.00 0.04 0.04 67 1014.2
20260506012904 62 249 2.6 7.8 0.00 0.04 0.04 67 1014.3
20260506012403 62 284 2.6 5.2 0.00 0.04 0.04 67 1014.2
20260506010904 62 265 2.6 10.4 0.00 0.04 0.04 67 1014.2
20260506010404 62 265 3.5 10.4 0.00 0.04 0.04 66 1014.2
20260506005404 63 289 2.6 6.1 0.00 0.04 0.04 66 1014.1
20260506004903 63 271 3.5 7.0 0.00 0.04 0.04 66 1014.1
20260506004404 63 272 3.5 7.0 0.00 0.04 0.04 65 1014.1
20260506003904 63 285 2.6 7.8 0.00 0.04 0.04 66 1013.9
20260506003403 63 296 5.2 8.7 0.00 0.04 0.04 66 1013.9
20260506002904 63 282 5.2 7.8 0.00 0.04 0.04 65 1013.9
20260506002404 63 283 6.1 10.4 0.00 0.04 0.04 64 1013.8
20260506001904 63 278 4.3 10.4 0.00 0.04 0.04 65 1013.8
20260506001404 63 265 5.2 10.4 0.00 0.04 0.04 66 1013.8
20260506000404 63 272 5.2 12.2 0.00 0.04 0.04 65 1013.8
20260505235904 63 274 6.1 12.2 0.00 0.04 0.04 65 1013.8
20260505235404 63 281 6.1 10.4 0.00 0.04 0.04 65 1013.8
20260505234904 63 282 3.5 11.3 0.00 0.04 0.04 64 1013.8
20260505234404 63 274 6.1 10.4 0.00 0.04 0.04 65 1013.8
20260505233904 63 293 3.5 8.7 0.00 0.04 0.04 64 1013.9
20260505233404 63 267 7.8 13.0 0.00 0.04 0.04 64 1013.9
20260505232403 64 301 4.3 7.8 0.00 0.04 0.04 63 1013.9
20260505231904 64 274 1.7 8.7 0.00 0.04 0.04 64 1013.9
20260505230903 64 263 5.2 10.4 0.00 0.04 0.04 63 1013.9
20260505230404 64 280 4.3 10.4 0.00 0.04 0.04 64 1013.9
20260505225904 64 245 4.3 10.4 0.00 0.04 0.04 64 1013.9
20260505225404 64 269 6.1 10.4 0.00 0.04 0.04 64 1013.9
20260505224904 64 287 2.6 5.2 0.00 0.04 0.04 65 1013.9
20260505224404 63 269 4.3 8.7 0.00 0.04 0.04 65 1013.9
20260505223903 64 283 5.2 10.4 0.00 0.04 0.04 65 1013.9
20260505223404 64 257 4.3 10.4 0.00 0.04 0.04 65 1013.9
20260505222904 64 279 4.3 10.4 0.00 0.04 0.04 65 1013.9
20260505222403 63 281 6.1 10.4 0.00 0.04 0.04 65 1014.1
20260505221904 63 279 2.6 10.4 0.00 0.04 0.04 66 1014.1
20260505221404 63 251 4.3 11.3 0.00 0.04 0.04 65 1014.1
20260505220904 63 253 5.2 8.7 0.00 0.04 0.04 64 1014.1
20260505220404 63 271 3.5 7.8 0.00 0.04 0.04 65 1014.1
20260505215903 63 273 6.1 10.4 0.00 0.04 0.04 64 1014.1
20260505215404 63 261 6.1 10.4 0.00 0.04 0.04 63 1014.2
20260505213904 63 250 5.2 10.4 0.00 0.04 0.04 64 1014.3
20260505213403 63 262 3.5 7.8 0.00 0.04 0.04 65 1014.3
20260505212904 63 288 3.5 10.4 0.00 0.04 0.04 65 1014.3
20260505212403 63 274 4.3 13.0 0.00 0.04 0.04 64 1014.3